This demonstration page uses our WeatherBlox Daily Observations layout. Learn more.

Left ArrowRight Arrow

Hourly Observations for April 15, 2021

Temp ( °F °C ) Dew Point ( °F °C ) Humidity (%) Winds ( mph kmh ) Pressure ( in mb ) Visibility ( mi km ) Precip ( " mm )
12:51 am 00:51 Clear 67 19.4 21 -6.1 17 17 NNW 8 13 29.73 1007 10 16 N/A
1:51 am 01:51 Clear 63 17.2 22 -5.6 21 21 NW 7 11 29.72 1007 10 16 N/A
2:51 am 02:51 Clear 63 17.2 24 -4.4 23 23 NW 12 19 29.72 1006 10 16 N/A
3:51 am 03:51 Clear 62 16.7 27 -2.8 26 26 NW 8 13 29.71 1006 10 16 N/A
4:51 am 04:51 Clear 56 13.3 25 -3.9 30 30 E 5 7 29.73 1007 10 16 N/A
5:51 am 05:51 Sunny 55 12.8 22 -5.6 28 28 E 5 7 29.76 1008 10 16 N/A
6:51 am 06:51 Sunny 57 13.9 23 -5 27 27 SE 5 7 29.78 1009 10 16 N/A
7:51 am 07:51 Sunny 62 16.7 24 -4.4 23 23 SSE 3 6 29.80 1009 10 16 N/A
8:51 am 08:51 Sunny 68 20 24 -4.4 19 19 undefined N/A 29.78 1008 10 16 N/A
9:51 am 09:51 Sunny 72 22.2 20 -6.7 14 14 W 10 17 29.77 1008 10 16 N/A
10:51 am 10:51 Sunny 75 23.9 18 -7.8 11 11 NW 10 17 29.75 1008 10 16 N/A
11:51 am 11:51 Sunny 76 24.4 16 -8.9 10 10 WNW 15 24 29.72 1007 10 16 N/A
12:51 pm 12:51 Sunny 79 26.1 16 -8.9 9 9 NNW 10 17 29.70 1006 10 16 N/A
1:51 pm 13:51 Sunny 79 26.1 10 -12.2 7 7 WNW 25 41 29.68 1005 10 16 N/A
2:51 pm 14:51 Sunny 78 25.6 10 -12.2 7 7 WNW 22 35 29.66 1004 10 16 N/A
3:51 pm 15:51 Sunny 78 25.6 12 -11.1 8 8 WNW 28 44 29.66 1004 10 16 N/A
4:51 pm 16:51 Sunny 76 24.4 17 -8.3 11 11 NW 21 33 29.69 1005 10 16 N/A
5:51 pm 17:51 Sunny 74 23.3 17 -8.3 11 11 NW 20 31 29.70 1006 10 16 N/A
6:51 pm 18:51 Clear 71 21.7 20 -6.7 14 14 NW 17 28 29.72 1007 10 16 N/A
7:51 pm 19:51 Clear 69 20.6 21 -6.1 16 16 NW 14 22 29.75 1007 10 16 N/A
8:51 pm 20:51 Clear 67 19.4 19 -7.2 16 16 NW 14 22 29.77 1008 10 16 N/A
9:51 pm 21:51 Clear 65 18.3 19 -7.2 17 17 WNW 13 20 29.77 1008 10 16 N/A
10:51 pm 22:51 Clear 62 16.7 17 -8.3 17 17 NW 10 17 29.78 1008 10 16 N/A
11:51 pm 23:51 Clear 59 15 15 -9.4 18 18 NW 9 15 29.79 1009 10 16 N/A

Powered by AerisWeather